Flag for U.S.A. Weather past 2 weeks in Columbia, South Carolina, U.S.A.

Now
74 °F

Clear.


Feels Like: 72 °F
Forecast: 75 / 92 °F
Wind: No wind

Location: Columbia Owens Downtown Airport

Current Time: Aug 3, 2015 at 7:00:52 AM

Latest Report: Aug 3, 2015 at 5:53 AM


Visibility: 10 mi

Pressure: 29.90 "Hg

Humidity: 91%

Dew point: 71 °F

Location of ColumbiaLocation

Historic Weather in Columbia — Graph

°F

Columbia temperature yesterday

Maximum temperature yesterday: 95 °F (at 1:53 PM)
Minimum temperature yesterday: 74 °F (at 5:53 AM)
Average temperature yesterday: 83 °F

Past Weeks' High & Low Weather Summary

 TemperatureHumidityPressure
High101 °F (Jul 21, 4:53 PM)94% (Jul 19, 5:53 AM)30.02 "Hg (Jul 19, 5:53 AM)
Low70 °F (Jul 26, 5:53 AM)25% (Jul 22, 4:53 PM)29.72 "Hg (Jul 21, 5:53 PM)
Average85 °F63%29.92 "Hg
* Reported Jul 19 5:53 AM — Aug 3 5:53 AM, Columbia, Weather by CustomWeather, © 2015

Note: Actual official high and low records may vary slightly from our data, if they occured in-between our weather recording intervals... More about our weather records

Advertising

Columbia weather history for previous 24 hours

 ConditionsComfort  
Time TempWeatherWind HumidityBarometerVisibility
5:53 AM
Mon, Aug 3
74 °FClear.No wind91%29.90 "Hg10 mi
4:53 AM75 °FClear.No wind88%29.90 "Hg10 mi
3:53 AM76 °FPassing clouds.No wind85%29.89 "Hg10 mi
2:53 AM76 °FPassing clouds.No wind82%29.90 "Hg10 mi
1:53 AM76 °FClear.No wind82%29.90 "Hg10 mi
12:53 AM77 °FClear.No wind79%29.92 "Hg10 mi
11:53 PM
Sun, Aug 2
78 °FPassing clouds.No wind74%29.92 "Hg10 mi
10:53 PM79 °FClear.No wind72%29.92 "Hg10 mi
9:53 PM80 °FClear.No wind69%29.91 "Hg10 mi
8:53 PM81 °FSunny.3 mph69%29.89 "Hg10 mi
7:53 PM83 °FSunny.5 mph65%29.90 "Hg10 mi
6:53 PM87 °FPartly sunny.10 mph57%29.90 "Hg10 mi
5:53 PM91 °FPassing clouds.6 mph42%29.88 "Hg10 mi
4:53 PM92 °FPartly sunny.9 mph38%29.88 "Hg10 mi
3:53 PM95 °FPartly sunny.3 mph35%29.88 "Hg10 mi
2:53 PM94 °FPartly sunny.7 mph41%29.90 "Hg10 mi
1:53 PM95 °FSunny.5 mph37%29.91 "Hg10 mi
12:53 PM92 °FPartly sunny.5 mph46%29.93 "Hg10 mi
11:53 AM91 °FScattered clouds.N/A50%29.94 "Hg10 mi
10:53 AM86 °FSunny.5 mph65%29.94 "Hg10 mi
9:53 AM83 °FSunny.5 mph74%29.95 "Hg10 mi
8:53 AM79 °FSunny.No wind82%29.95 "Hg10 mi
7:53 AM77 °FPartly sunny.No wind85%29.93 "Hg10 mi
Weather by CustomWeather, © 2015

See weather overviewHow to use our weather pages